{"data":{"norad_id":33051,"intl_designator":"2008-028A","name":"ZHONGXING-9","alt_names":[],"object_type":"PAYLOAD","status":"ACTIVE","operator":null,"country":"PRC","launch_date":"2008-06-09","launch_site_code":"XICLF","launch_vehicle":null,"mission":null,"orbit_class":"UNKNOWN","rcs_meters":19.9526,"size_class":null,"mass_kg":null,"dimensions":null,"purposes":["comms"],"wikipedia_slug":null,"has_3d_model":false,"image_url":null,"decayed_at":null,"tle_current":{"epoch":"2026-09-20T01:57:52.079328Z","epoch_age_seconds":50891,"freshness":"FRESH","line1":"1 33051U 08028A   26263.08185277 -.00000253  00000+0  00000+0 0  9996","line2":"2 33051   1.0041  83.9241 0006385 134.2644 262.6493  1.00274339 66994","mean_motion":1.00274339,"eccentricity":0.0006385,"inclination_deg":1.0041,"raan_deg":83.9241,"arg_perigee_deg":134.2644,"mean_anomaly_deg":262.6493,"bstar":0,"rev_number":6699,"period_min":1436.060326461,"perigee_km":35758.95727326,"apogee_km":35812.800721689,"semimajor_km":42164.015997475,"source":"CELESTRAK","updated_at":"2026-09-20T09:00:35.132922Z"}}}